• In Czech Republic
  • List of Countries
  • For 7 days
  • Water Temperature
  • Satellite Maps
  • Weather Map
  • Weather Widgets
  • user-avatar
    Login

    Hourly Weather Volkovo

    Today, 16 July, Monday

    Time Temperature Precipitation Wind Pressure Humidity
    00:00 +22°C° 1.2 mm 1 mps 743 mmHg 87%
    01:00 +21°C° 1 mm 2 mps 743 mmHg 88%
    02:00 +21°C° 1 mm 2 mps 743 mmHg 89%
    03:00 +20°C° 0 mm 2 mps 743 mmHg 91%
    04:00 +21°C° 0.4 mm 3 mps 743 mmHg 90%
    05:00 +21°C° 0.4 mm 3 mps 743 mmHg 89%
    06:00 +21°C° 0.4 mm 3 mps 743 mmHg 88%
    07:00 +24°C° 0.4 mm 3 mps 743 mmHg 83%
    08:00 +26°C° 0.4 mm 4 mps 743 mmHg 78%
    09:00 +27°C° 0 mm 4 mps 743 mmHg 72%
    10:00 +28°C° 1.1 mm 4 mps 743 mmHg 69%
    11:00 +29°C° 1.1 mm 4 mps 742 mmHg 66%
    12:00 +30°C° 1.1 mm 4 mps 742 mmHg 62%
    13:00 +30°C° 1.5 mm 4 mps 742 mmHg 63%
    14:00 +30°C° 1.5 mm 4 mps 742 mmHg 64%
    15:00 +30°C° 1.5 mm 4 mps 741 mmHg 65%
    16:00 +29°C° 0.5 mm 4 mps 741 mmHg 68%
    17:00 +29°C° 0.5 mm 3 mps 741 mmHg 71%
    18:00 +28°C° 0.5 mm 2 mps 741 mmHg 74%
    19:00 +27°C° 0.6 mm 3 mps 741 mmHg 77%
    20:00 +25°C° 0.6 mm 3 mps 741 mmHg 81%
    21:00 +24°C° 0.6 mm 3 mps 741 mmHg 84%
    22:00 +22°C° 0.4 mm 3 mps 741 mmHg 86%
    23:00 +22°C° 0.4 mm 3 mps 741 mmHg 89%

    Tomorrow, 17 July, Tuesday

    Time Temperature Precipitation Wind Pressure Humidity
    00:00 +21°C° 0.4 mm 3 mps 740 mmHg 91%
    01:00 +21°C° 0.2 mm 3 mps 740 mmHg 91%
    02:00 +21°C° 0.2 mm 3 mps 740 mmHg 92%
    03:00 +20°C° 0.2 mm 4 mps 740 mmHg 93%
    04:00 +20°C° 0.7 mm 4 mps 740 mmHg 93%
    05:00 +20°C° 0.7 mm 4 mps 739 mmHg 94%
    06:00 +20°C° 0.7 mm 4 mps 739 mmHg 95%
    07:00 +21°C° 0.5 mm 5 mps 739 mmHg 92%
    08:00 +21°C° 0.5 mm 6 mps 739 mmHg 90%
    09:00 +21°C° 0.5 mm 6 mps 739 mmHg 88%
    10:00 +22°C° 0.4 mm 6 mps 738 mmHg 87%
    11:00 +22°C° 0.4 mm 6 mps 738 mmHg 86%
    12:00 +23°C° 0.4 mm 6 mps 738 mmHg 84%
    13:00 +22°C° 0.6 mm 6 mps 738 mmHg 86%
    14:00 +22°C° 0.6 mm 6 mps 738 mmHg 88%
    15:00 +22°C° 0.6 mm 5 mps 737 mmHg 89%
    16:00 +22°C° 0.9 mm 5 mps 737 mmHg 90%
    17:00 +22°C° 0.9 mm 5 mps 737 mmHg 90%
    18:00 +22°C° 0.9 mm 5 mps 737 mmHg 90%
    19:00 +21°C° 0.5 mm 4 mps 737 mmHg 92%
    20:00 +21°C° 0.5 mm 4 mps 737 mmHg 94%
    21:00 +20°C° 0.5 mm 3 mps 737 mmHg 96%
    22:00 +19°C° 0.1 mm 3 mps 736 mmHg 96%
    23:00 +19°C° 0.1 mm 3 mps 736 mmHg 96%

    Day after tomorrow, 18 July, Wednesday

    Time Temperature Precipitation Wind Pressure Humidity
    00:00 +19°C° 0.1 mm 3 mps 736 mmHg 97%
    01:00 +19°C° 0.1 mm 3 mps 736 mmHg 97%
    02:00 +19°C° 0.1 mm 2 mps 736 mmHg 97%
    03:00 +18°C° 0.1 mm 2 mps 736 mmHg 97%
    04:00 +19°C° 0.3 mm 2 mps 736 mmHg 97%
    05:00 +19°C° 0.3 mm 2 mps 736 mmHg 97%
    06:00 +19°C° 0.3 mm 3 mps 736 mmHg 96%
    07:00 +19°C° 0.6 mm 3 mps 736 mmHg 95%
    08:00 +20°C° 0.6 mm 3 mps 736 mmHg 94%
    09:00 +20°C° 0.6 mm 4 mps 736 mmHg 93%
    10:00 +20°C° 0.9 mm 5 mps 737 mmHg 91%
    11:00 +20°C° 0.9 mm 6 mps 737 mmHg 90%
    12:00 +21°C° 0.9 mm 7 mps 737 mmHg 89%
    13:00 +21°C° 0.7 mm 7 mps 738 mmHg 88%
    14:00 +21°C° 0.7 mm 7 mps 738 mmHg 87%
    15:00 +21°C° 0.7 mm 7 mps 738 mmHg 86%
    16:00 +21°C° 0.4 mm 7 mps 738 mmHg 85%
    17:00 +21°C° 0.4 mm 6 mps 739 mmHg 85%
    18:00 +21°C° 0.4 mm 6 mps 739 mmHg 84%
    19:00 +21°C° 0.5 mm 5 mps 739 mmHg 86%
    20:00 +20°C° 0.5 mm 5 mps 739 mmHg 87%
    21:00 +20°C° 0.5 mm 5 mps 739 mmHg 89%
    22:00 +20°C° 0.4 mm 5 mps 739 mmHg 90%
    23:00 +20°C° 0.4 mm 5 mps 739 mmHg 90%

    19 July, Thursday

    Time Temperature Precipitation Wind Pressure Humidity
    00:00 +20°C° 0.4 mm 5 mps 739 mmHg 91%
    01:00 +19°C° 0.4 mm 5 mps 739 mmHg 91%
    02:00 +19°C° 0.4 mm 5 mps 740 mmHg 92%
    03:00 +19°C° 0.4 mm 4 mps 740 mmHg 93%
    04:00 +19°C° 0.7 mm 5 mps 740 mmHg 93%
    05:00 +19°C° 0.7 mm 5 mps 740 mmHg 93%
    06:00 +19°C° 0.7 mm 5 mps 740 mmHg 93%
    07:00 +20°C° 0.6 mm 5 mps 740 mmHg 92%
    08:00 +20°C° 0.6 mm 5 mps 741 mmHg 91%
    09:00 +21°C° 0.6 mm 5 mps 741 mmHg 90%
    10:00 +22°C° 0.3 mm 6 mps 741 mmHg 85%
    11:00 +24°C° 0.3 mm 6 mps 742 mmHg 80%
    12:00 +26°C° 0.3 mm 6 mps 742 mmHg 74%
    13:00 +27°C° 0.8 mm 6 mps 742 mmHg 73%
    14:00 +27°C° 0.8 mm 6 mps 742 mmHg 71%
    15:00 +28°C° 0.8 mm 6 mps 742 mmHg 69%
    16:00 +28°C° 0.5 mm 5 mps 742 mmHg 71%
    17:00 +27°C° 0.5 mm 4 mps 743 mmHg 74%
    18:00 +27°C° 0.5 mm 3 mps 743 mmHg 76%
    19:00 +26°C° 0.1 mm 3 mps 743 mmHg 79%
    20:00 +25°C° 0.1 mm 3 mps 743 mmHg 82%
    21:00 +23°C° 0.1 mm 2 mps 743 mmHg 84%
    22:00 +23°C° 0.4 mm 2 mps 744 mmHg 86%
    23:00 +21°C° 0.4 mm 3 mps 744 mmHg 88%

    20 July, Friday

    Time Temperature Precipitation Wind Pressure Humidity
    00:00 +21°C° 0.4 mm 3 mps 744 mmHg 90%
    01:00 +20°C° 0.3 mm 3 mps 744 mmHg 90%
    02:00 +20°C° 0.3 mm 3 mps 744 mmHg 91%
    03:00 +20°C° 0.3 mm 3 mps 744 mmHg 91%
    04:00 +20°C° 1.1 mm 3 mps 744 mmHg 91%
    05:00 +21°C° 1.1 mm 2 mps 744 mmHg 91%
    06:00 +21°C° 1.1 mm 2 mps 744 mmHg 91%
    07:00 +22°C° 0.3 mm 3 mps 744 mmHg 87%
    08:00 +23°C° 0.3 mm 4 mps 745 mmHg 83%
    09:00 +26°C° 0.3 mm 4 mps 745 mmHg 78%
    10:00 +27°C° 0.2 mm 4 mps 745 mmHg 74%
    11:00 +28°C° 0.2 mm 4 mps 744 mmHg 70%
    12:00 +29°C° 0.2 mm 4 mps 744 mmHg 65%
    13:00 +30°C° 0 mm 3 mps 744 mmHg 62%
    14:00 +31°C° 0 mm 3 mps 744 mmHg 59%
    15:00 +31°C° 0 mm 3 mps 744 mmHg 56%
    16:00 +31°C° 0.5 mm 2 mps 744 mmHg 60%
    17:00 +31°C° 0.5 mm 1 mps 744 mmHg 63%
    18:00 +30°C° 0.5 mm 1 mps 744 mmHg 66%
    19:00 +29°C° 0.2 mm 1 mps 744 mmHg 70%
    20:00 +27°C° 0.2 mm 1 mps 744 mmHg 74%
    21:00 +23°C° 0.2 mm 0 mps 744 mmHg 77%
    22:00 +24°C° 0.5 mm 1 mps 744 mmHg 80%
    23:00 +24°C° 0.5 mm 1 mps 744 mmHg 83%

    21 July, Saturday

    Time Temperature Precipitation Wind Pressure Humidity
    00:00 +23°C° 0.5 mm 2 mps 745 mmHg 85%
    01:00 +23°C° 0.7 mm 2 mps 745 mmHg 88%
    02:00 +21°C° 0.7 mm 3 mps 745 mmHg 90%
    03:00 +21°C° 0.7 mm 3 mps 745 mmHg 93%
    04:00 +21°C° 0 mm 3 mps 745 mmHg 92%
    05:00 +21°C° 0 mm 3 mps 745 mmHg 91%
    06:00 +21°C° 0 mm 3 mps 744 mmHg 90%
    07:00 +24°C° 0 mm 2 mps 745 mmHg 83%
    08:00 +26°C° 0 mm 2 mps 745 mmHg 76%
    09:00 +28°C° 0 mm 2 mps 745 mmHg 70%
    10:00 +28°C° 0.8 mm 2 mps 745 mmHg 66%
    11:00 +29°C° 0.8 mm 2 mps 744 mmHg 63%
    12:00 +30°C° 0.8 mm 3 mps 744 mmHg 60%
    13:00 +31°C° 0.2 mm 2 mps 744 mmHg 58%
    14:00 +31°C° 0.2 mm 2 mps 744 mmHg 56%
    15:00 +32°C° 0.2 mm 2 mps 744 mmHg 54%
    16:00 +31°C° 0 mm 2 mps 744 mmHg 58%
    17:00 +31°C° 0 mm 2 mps 744 mmHg 62%
    18:00 +30°C° 0 mm 2 mps 744 mmHg 67%
    19:00 +29°C° 0.6 mm 2 mps 744 mmHg 71%
    20:00 +27°C° 0.6 mm 2 mps 744 mmHg 76%
    21:00 +25°C° 0.6 mm 2 mps 744 mmHg 81%
    22:00 +25°C° 1.3 mm 2 mps 744 mmHg 85%
    23:00 +24°C° 1.3 mm 3 mps 744 mmHg 88%
    Show more